Regional Weather Roundup
Issued by NWS

Home | Current Version | Previous Version | Text Only | Print | Product List | Glossary Off
Versions: 1 2 3 4 5 6 7 8 9 10 11 12 13 14 15 16 17 18 19 20 21 22 23 24 25 26 27 28 29 30 31 32 33 34 35 36 37 38 39 40 41 42 43 44 45 46 47 48 49 50

000
ASUS45 KCYS 290510
RWRWY

WYOMING REGIONAL WEATHER ROUNDUP
NATIONAL WEATHER SERVICE CHEYENNE WY
1100 PM MDT SAT MAR 28 2015

NOTE:  "FAIR" INDICATES FEW OR NO CLOUDS BELOW 12,000 FEET
WITH NO SIGNIFICANT WEATHER AND/OR OBSTRUCTIONS TO VISIBILITY.

WYZ001-290600-
YELLOWSTONE NATIONAL PARK

CITY           SKY/WX    TMP DP  RH WIND       PRES   REMARKS
LK YELLOWSTONE   N/A     30  11  45 CALM      30.27S
W YELLOWSTONE  NOT AVBL

$$
WYZ002>013-054>058-071-098>099-290600-
NORTHERN WYOMING

CITY           SKY/WX    TMP DP  RH WIND       PRES   REMARKS
JACKSON        CLOUDY    41  23  48 W10       30.25S
CODY           MOCLDY    48  10  21 NW13G23   30.13R
GREYBULL       FAIR      50  14  23 NW21      30.08R
WORLAND        FAIR      49  15  25 N12       30.06R
SHERIDAN       FAIR      50  15  24 NW33G46   30.01R
BUFFALO        FAIR      49  12  22 NW29G40   30.01R
GILLETTE       FAIR      48  16  27 NW23G33   29.96R
HULETT         FAIR      50  14  23 W14G29    29.93R
NEWCASTLE      FAIR      50  14  23 NW16      29.93R

$$
WYZ014>020-022>026-101>103-290600-
CENTRAL WYOMING

CITY           SKY/WX    TMP DP  RH WIND       PRES   REMARKS
BIG PINEY      FAIR      40  19  43 N15       30.24R WCI  32
PINEDALE       FAIR      32  23  69 NW8       30.27R WCI  25
DUBOIS         FAIR      36  25  64 W22       30.18F WCI  24
LANDER         FAIR      53  13  20 W18G30    30.04S
RIVERTON       FAIR      52  19  27 NW22      30.04S
CASPER         FAIR      45  24  43 NE8       30.05R
DOUGLAS        CLOUDY    49  16  26 N16G24    30.02R

$$
WYZ021-027>030-104>119-290600-
SOUTHERN WYOMING

CITY           SKY/WX    TMP DP  RH WIND       PRES   REMARKS
EVANSTON       FAIR      41  22  46 SW8       30.28R
KEMMERER       FAIR      37  19  48 W12       30.26R WCI  30
FORT BRIDGER   FAIR      46  22  39 W14G20    30.28S
ROCK SPRINGS   FAIR      45  22  40 W16       30.22R
DIXON          FAIR      52  15  22 NW21G32   30.18R
RAWLINS        FAIR      50  19  29 W26G44    30.11R
SARATOGA       FAIR      45  18  33 W7        30.14R
LARAMIE        FAIR      47  12  24 W18       30.07S
CHEYENNE       FAIR      55  26  32 NW22G28   29.98S
TORRINGTON     FAIR      56  29  35 N25G39    29.91R
PINE BLUFFS    FAIR      59  27  29 NW12      29.97R

$$



USA.gov is the U.S. government's official web portal to all federal, state and local government web resources and services.